Simultaneous Nadir Overpasses (SNOs) Predictions

Prediction of SNOs between NOAA-19 and TERRA Satellite Orbit:

Table of predicted SNOs for the next 14.0 days since TLE Epoch: 6/15/2013
Index Date (NOAA-19) Time (NOAA-19) Lat,Lon (NOAA-19) SZA (NOAA-19 ) Date (TERRA) Time (TERRA) Lat,Lon (TERRA) SZA (TERRA ) Distance(km) Time Diff (sec)
1 06/16/2013 08:29:09 -70.15,-128.21 133.31 06/16/2013 08:30:19 -70.01,-126.82 133.46 54.64 70
2 06/16/2013 09:20:00 69.48, 40.04 46.02 06/16/2013 09:19:54 69.47, 40.08 46.00 2.08 6
3 06/16/2013 10:10:45 -68.66,-151.54 134.81 06/16/2013 10:09:36 -68.69,-153.29 134.78 71.12 69
4 06/18/2013 13:13:27 -70.07, 160.85 133.45 06/18/2013 13:14:38 -69.93, 161.98 133.60 45.73 71
5 06/18/2013 14:04:19 69.49, -31.03 45.96 06/18/2013 14:04:11 69.49, -30.97 45.97 2.29 8
6 06/18/2013 14:55:03 -68.57, 137.51 134.95 06/18/2013 14:53:55 -68.60, 135.53 134.92 80.49 68
7 06/20/2013 17:57:45 -69.99, 89.91 133.55 06/20/2013 17:58:56 -69.89, 90.86 133.66 37.97 71
8 06/20/2013 18:48:37 69.44,-102.02 45.90 06/20/2013 18:48:29 69.45,-102.10 45.90 2.93 8
9 06/20/2013 19:39:21 -68.49, 66.55 135.06 06/20/2013 19:38:13 -68.57, 64.41 134.98 87.46 68
10 06/22/2013 22:42:03 -69.92, 18.95 133.62 06/22/2013 22:43:15 -69.78, 19.64 133.75 30.29 72
11 06/22/2013 23:32:56 69.45,-173.11 45.92 06/22/2013 23:32:46 69.45,-173.16 45.92 2.15 10
12 06/23/2013 00:23:39 -68.42, -4.42 135.12 06/23/2013 00:22:32 -68.46, -6.79 135.07 96.93 67
13 06/25/2013 03:26:21 -69.85, -52.01 133.64 06/25/2013 03:27:32 -69.78, -51.43 133.71 23.57 71
14 06/25/2013 04:17:15 69.47, 115.80 45.98 06/25/2013 04:17:03 69.45, 115.76 45.96 3.11 12
15 06/27/2013 08:10:39 -69.79,-122.99 133.62 06/27/2013 08:11:50 -69.72,-122.59 133.70 17.19 71
16 06/27/2013 09:01:34 69.49, 44.71 46.08 06/27/2013 09:01:19 69.49, 44.74 46.07 1.59 15




NCC Satellite Simultaneous Nadir Overpasses (SNOs) Prediction Service
